星链-35192(STARLINK-35192)

导读

STARLINK-35192是美国SpaceX星链星座的卫星,于2025年10月8日发射入轨,归属星链互联网星座组网建设序列。星链项目旨在依托近地轨道卫星群,为全球提供高速低延迟互联网宽带服务,该卫星承担着补网增强星座覆盖与通信容量的作用,延续了星链持续拓展全球太空互联网覆盖的推进节奏。

Basic Information
目录编号:
65933
目录名称:
STARLINK-35192
国际标识:
2025-225Z
轨道中心:
EARTH
卫星名称:
星链-35192
卫星全名:
星链-35192(STARLINK-35192)
卫星状态:
在轨 (已飞行248 天)
发射日期:
2025-10-08 UTC
国别 :
美国 (US)
星等 :
--
Orbit Information
数据来源 国际轨道数据 AOE轨道数据
星历时间 2026-06-13T09:13:35+0800
12小时前
查看轨道信息
2026-06-13T00:00:00+0800
21小时前
查看轨道信息
半长轴 6840.987km 6840.826km
偏心率 0.0001369 0.0001375
轨道倾角 53.161° 53.160°
近地点辐角 82.975° 83.986°
升交点赤经 82.363° 84.162°
平近点角 277.141° 311.412°
近地点 461.913km 461.748km
远地点 463.787km 463.63km
周期 93.851分钟 93.847分钟
每日圈数 15.343509 15.344051
Detailed Information
固有亮度:
5
最大亮度:
2.5
卫星平台:
Starlink V1.0
覆盖范围:
全球
运营商:
太空探索技术公司
运营商所在国:
美国
制造商(研发单位):
太空探索技术公司
制造商所在国:
美国
使用方式:
暂无
Satellite Introduction
Starlink 计划是 SpaceX 推出的全球卫星互联网项目,通过发射低轨道卫星,为全球尤其是偏远地区提供高速、低延迟的互联网服务。自 2019 年起,Starlink 已部署数千颗卫星,旨在缩小全球数字鸿沟,推动互联网普及。该项目还为军事、航空等行业提供通信支持,带来广泛经济效益。
2D Orbit Map
3D Orbit Map
Orbit Altitude Analysis Chart
Orbit Inclination Analysis Chart
Orbit Comprehensive Analysis Chart
View Comprehensive Chart